Hourly Data Report for January 06, 2021

STE-ANNE-DE-BELLEVUE 1
QUEBEC
Current Station Operator: ECCC - MSC

45°25'38.000" N
73°55'45.000" W
39.00 m
702FHL8
71377
WVQ

Download Data

Hourly Data (January 2021)
Hourly Data Report for January 6, 2021
TIME
LST
Temp Definition
°C
Dew Point Definition
°C
Rel Hum Definition
%
Precip. Amount Definition
mm

Wind Dir Definition
10's deg

Wind Spd Definition
km/h
Visibility Definition
km
Stn Press Definition
kPa
Hmdx Definition


Wind Chill Definition


Weather Definition


00:00 -3.6 -4.9 91 0.0 34 7   101.34   -7 LegendNANA
01:00 -3.3 -5.4 86 0.0 35 9   101.36   -7 LegendNANA
02:00 -3.4 -5.4 86 0.0 33 8   101.38   -7 LegendNANA
03:00 -3.4 -5.5 85 0.0 32 9   101.38   -7 LegendNANA
04:00 -3.2 -6.0 82 0.0 32 7   101.39   -6 LegendNANA
05:00 -3.2 -6.2 80 0.0 30 7   101.40   -6 LegendNANA
06:00 -3.5 -6.1 82 0.0 31 4   101.42   -5 LegendNANA
07:00 -3.9 -6.3 83 0.0 27 5   101.44   -6 LegendNANA
08:00 -4.0 -6.5 83 0.0 29 4   101.49   -6 LegendNANA
09:00 -3.5 -6.7 78 0.0 30 8   101.52   -7 LegendNANA
10:00 -2.9 -7.2 72 0.0 31 7   101.53   -6 LegendNANA
11:00 -3.0 -7.6 71 0.0 33 8   101.49   -6 LegendNANA
12:00 -1.9 -7.8 64 0.0 28 7   101.44   -5 LegendNANA
13:00 -1.5 -8.1 61 0.0 28 7   101.42   -4 LegendNANA
14:00 -1.5 -8.0 61 0.0 26 10   101.43   -5 LegendNANA
15:00 -2.3 -7.4 68 0.0 24 10   101.48   -6 LegendNANA
16:00 -3.0 -7.3 72 0.0 25 10   101.50   -7 LegendNANA
17:00 -3.4 -7.7 72 0.0 27 12   101.52   -8 LegendNANA
18:00 -3.8 -8.0 73 0.0 27 13   101.56   -9 LegendNANA
19:00 -4.2 -8.1 74 0.0 27 15   101.60   -10 LegendNANA
20:00 -4.8 -8.2 77 0.0 28 12   101.64   -10 LegendNANA
21:00 -4.9 -8.1 78 0.0 28 15   101.64   -10 LegendNANA
22:00 -5.3 -8.2 80 0.0 29 16   101.63   -11 LegendNANA
23:00 -5.6 -8.5 80 0.0 29 15   101.65   -11 LegendNANA

Notes on Data Quality.

Legend

  • E = Estimated
  • M = Missing
  • NA = Not Available*
  • [empty] = Indicates an unobserved value
Date modified: